Showing default

CSC-1, 58022

Orbit data source: Space-Track

CSC-1, 58022 is a payload satellite owned by ISIS BV (NL) in SSO that was launched on Mon, 09 Oct 2023 UTC via a VEGA launch vehicle from the French Guiana (FRGUI). Payload-class satellites include a variety of spacecraft equipped with specific instruments for various scientific and technological missions. These include communications satellites like Starlink; space stations such as the ISS; scientific satellites like the Hubble; Earth observation satellites from companies like Planet Labs, Umbra, and HawkEye 360; GPS; miniature CubeSats for education and research; and military/defense satellites.

Loading next visibility...
Identifier
58022, 2023-155G
Orbit
SSO
Country
Flag of UnknownUnknown / NETH
Related business
Manufacturer
ISIS BV
Mission
Operational Commercial Technology
Bus & Motor
CUBESAT 6UXL, Unknown motor
Mass
~10 kg wet, ~10 kg dry
Launch date (UTC)
2023-10-09 (2 years ago)
Launch vehicle
VEGA
Launch site
French Guiana (FRGUI)
Object type
Payload
Rocket body
Debris
Shape & HBR
Box + 2 Pan, 0.3 m
Radar Cross Section
0.098 m², Medium (>0.1 m² and < 1m²)

Expand to show TLE details & history
Last TLE update: 10 hours ago

TLE from 10 hours ago
0 CSC-1
1 58022U 23155G   25307.90848346  .00003619  00000-0  23521-3 0  9997
2 58022  97.5659  15.7612 0006803 296.9530  63.1004 15.08625402113746
Epoch: 2025-11-03T21:48Z
TLE epoch observation values (Epoch: 2025-11-03T21:48:12.970Z)
Latitude
0.00002°
Longitude
5.30405°
Altitude
541.342 km
Speed
7.593 km/s
True Right ascension
01h 03m 02s
True Declination
0° 00' 00"
Sunlit
Object was in full shadow at epoch
Visualization orbit readout
Latitude
Unknown
Longitude
Unknown
Altitude
Unknown
Speed
Unknown
Apparent Right ascension
Unknown
Apparent Declination
Unknown
Sunlit
N/A
Visualization observer readout
Local Sidereal Time
03:53:14
Azimuth
Unknown
Elevation
Unknown
Doppler factor
Unknown
Orbital elements
Apogee altitude
542.092 km
Perigee altitude
532.683 km
Semi-major axis
6,915.524 km
Eccentricity
0.00068
Inclination
97.5659°
RAAN
15.7612°
Arg. of periapsis
296.953°
True anomaly
63.16995°
Mean anomaly
63.1004°
Eccentric anomaly
63.13517°
Mean motion
3.77403 °/min
Orbital period
95.39 mins
BSTAR
0.00023521
Loading maneuver chart data...
Computing Atmospheric mass density...
Loading historical data...
Loading historical data...
Loading historical data...
Loading historical data...
Loading historical data...
Loading historical data...
Loading historical data...

Documentation

Showing up to 5 results
|